Total_Precipitation_Accumulation
0.12 0.14 0.28 0.27 0.16 0.11 0.13 0.18 0.22 0.22 0.19 0.18 0.17 0.16 0.13 0.09 0.07 0.08 0.09 0.12 0.15 0.19 0.23 0.26 0.31 0.37 0.40 0.46 0.50 0.52 0.48 0.51 0.71 0.79 0.88 1.08 1.31 1.51 1.72 1.92 1.96 1.54 1.33
0.03 0.07 0.23 0.27 0.19 0.14 0.13 0.16 0.20 0.21 0.20 0.18 0.17 0.17 0.15 0.11 0.09 0.09 0.11 0.13 0.15 0.20 0.22 0.23 0.27 0.33 0.39 0.38 0.39 0.39 0.44 0.62 0.84 1.05 1.29 1.41 1.57 1.69 1.75 1.86 1.89 1.40 1.21
0.02 0.03 0.12 0.22 0.18 0.15 0.14 0.15 0.16 0.19 0.18 0.17 0.16 0.15 0.12 0.10 0.11 0.10 0.12 0.13 0.15 0.20 0.18 0.20 0.26 0.30 0.35 0.36 0.35 0.39 0.47 0.69 1.05 1.42 1.63 1.52 1.28 1.54 1.59 1.73 1.70 1.19 1.10
0.02 0.02 0.04 0.15 0.16 0.13 0.14 0.15 0.15 0.15 0.14 0.14 0.14 0.13 0.11 0.11 0.12 0.13 0.14 0.16 0.19 0.22 0.23 0.26 0.31 0.28 0.24 0.28 0.36 0.46 0.55 0.75 1.04 1.46 1.49 1.27 1.01 1.18 1.37 1.30 1.26 1.08 1.01
0.04 0.02 0.07 0.13 0.15 0.13 0.13 0.13 0.13 0.12 0.12 0.13 0.13 0.13 0.11 0.11 0.13 0.15 0.17 0.20 0.24 0.28 0.31 0.32 0.31 0.27 0.24 0.26 0.37 0.49 0.62 0.83 1.03 1.26 1.06 1.15 1.25 1.21 1.16 1.09 1.09 0.95 0.87
0.05 0.04 0.09 0.14 0.16 0.15 0.13 0.13 0.12 0.12 0.12 0.12 0.13 0.12 0.11 0.12 0.15 0.18 0.20 0.22 0.25 0.31 0.30 0.31 0.28 0.28 0.25 0.28 0.42 0.51 0.71 0.94 1.00 0.83 0.76 0.95 0.98 1.14 1.07 1.03 0.94 0.85 0.72
0.05 0.05 0.08 0.16 0.18 0.18 0.16 0.15 0.15 0.14 0.13 0.13 0.14 0.14 0.14 0.16 0.19 0.21 0.22 0.22 0.24 0.31 0.30 0.27 0.27 0.29 0.32 0.36 0.45 0.49 0.65 0.89 0.84 0.66 0.70 0.89 0.86 0.96 1.04 1.04 1.01 0.85 0.70
0.07 0.06 0.11 0.18 0.20 0.21 0.20 0.19 0.18 0.17 0.16 0.15 0.15 0.16 0.18 0.19 0.19 0.21 0.21 0.25 0.26 0.28 0.27 0.28 0.27 0.27 0.34 0.40 0.45 0.47 0.59 0.73 0.66 0.57 0.59 0.69 0.75 0.88 1.06 0.97 0.91 0.82 0.67
0.30 0.17 0.15 0.16 0.20 0.23 0.26 0.24 0.22 0.20 0.19 0.18 0.18 0.17 0.17 0.17 0.18 0.20 0.25 0.28 0.28 0.29 0.28 0.29 0.28 0.29 0.34 0.39 0.45 0.48 0.58 0.70 0.67 0.71 0.62 0.56 0.65 0.83 1.07 0.98 0.86 0.81 0.73
0.57 0.34 0.27 0.26 0.31 0.30 0.28 0.27 0.27 0.25 0.22 0.19 0.19 0.17 0.18 0.19 0.22 0.29 0.32 0.34 0.32 0.36 0.36 0.37 0.38 0.40 0.44 0.47 0.54 0.61 0.73 0.70 0.73 0.84 0.66 0.47 0.63 0.87 1.13 1.12 1.02 1.01 0.88
0.87 0.74 0.64 0.54 0.48 0.50 0.44 0.36 0.39 0.38 0.36 0.34 0.35 0.34 0.39 0.51 0.52 0.64 0.58 0.62 0.55 0.56 0.60 0.61 0.63 0.65 0.67 0.60 0.73 0.82 0.79 0.83 1.01 0.95 0.69 0.53 0.70 1.03 1.19 1.22 1.14 1.09 1.07
1.15 1.06 1.04 0.87 0.67 0.59 0.55 0.68 0.81 0.77 0.79 0.78 0.86 0.84 0.92 0.98 0.97 0.82 0.90 0.99 1.01 1.09 1.09 1.13 1.31 1.15 0.93 0.78 0.97 1.11 0.94 0.94 1.05 0.81 0.60 0.64 0.81 1.10 1.26 1.23 1.19 1.14 1.14
1.60 1.38 1.16 1.14 1.05 1.00 1.03 1.03 1.06 1.17 1.24 1.36 1.43 1.41 1.52 1.32 1.16 1.08 1.31 1.47 1.44 1.40 1.32 1.57 1.79 1.45 1.39 1.53 1.55 1.43 1.28 1.14 1.14 0.93 0.80 0.88 1.03 1.28 1.42 1.31 1.29 1.25 1.10
2.18 2.08 1.97 1.76 1.60 1.57 1.44 1.25 1.16 1.11 1.18 1.29 1.42 1.48 1.64 1.69 1.58 1.62 1.76 1.64 1.61 1.63 1.82 1.82 2.01 1.89 1.77 1.71 1.68 1.79 1.72 1.44 1.37 1.27 1.29 1.31 1.36 1.50 1.60 1.51 1.47 1.43 1.29
2.63 2.73 3.17 2.92 2.44 2.07 1.79 1.50 1.23 1.12 1.00 0.99 1.11 1.33 1.51 1.63 1.74 1.86 1.70 1.58 1.38 1.62 1.88 1.94 1.80 1.99 1.99 2.04 2.02 2.01 2.04 1.78 1.61 1.48 1.53 1.72 1.67 1.63 1.72 1.77 1.72 1.66 1.60
3.48 3.46 3.52 3.78 3.28 2.56 2.05 1.70 1.39 1.11 1.09 1.09 1.11 1.18 1.36 1.51 1.59 1.65 1.60 1.51 1.45 1.59 1.78 1.81 1.82 2.06 2.15 2.13 1.85 1.75 1.75 1.78 1.69 1.49 1.61 1.74 1.77 1.62 1.69 1.90 1.96 1.93 1.92
4.14 4.24 4.21 4.32 3.95 3.37 2.84 2.26 1.72 1.42 1.22 1.21 1.21 1.12 1.13 1.26 1.31 1.41 1.44 1.39 1.44 1.50 1.51 1.49 1.57 1.77 1.76 1.69 1.56 1.50 1.55 1.59 1.65 1.61 1.47 1.51 1.66 1.72 1.65 1.78 1.90 1.95 2.09
4.80 5.02 5.01 4.72 4.53 4.01 3.36 2.77 2.33 2.00 1.69 1.41 1.27 1.10 0.92 0.99 1.03 1.12 1.08 1.11 1.16 1.19 1.19 1.23 1.29 1.42 1.52 1.61 1.61 1.49 1.61 1.69 1.60 1.67 1.63 1.51 1.70 1.60 1.81 1.95 1.92 1.87 2.09
5.95 6.39 6.14 5.40 4.84 4.26 3.62 3.08 2.86 2.61 2.16 1.75 1.57 1.32 1.08 0.95 0.94 1.00 0.99 1.01 0.91 0.94 0.96 0.91 1.05 1.21 1.34 1.41 1.31 1.37 1.35 1.37 1.39 1.34 1.49 1.38 1.47 1.56 1.71 1.81 1.91 1.83 2.09
6.32 7.00 6.84 6.11 5.10 4.35 3.88 3.37 3.15 2.83 2.38 1.92 1.67 1.46 1.19 1.01 0.91 0.89 0.84 0.78 0.71 0.77 0.85 0.90 1.06 1.10 1.11 1.17 1.07 1.15 1.11 1.01 1.09 1.16 1.13 1.16 1.22 1.16 1.38 1.59 1.76 1.50 1.82
5.30 5.79 5.65 4.97 4.37 3.70 3.13 2.56 2.39 2.17 1.94 1.70 1.48 1.27 1.14 1.00 0.92 0.86 0.76 0.78 0.67 0.67 0.70 0.69 0.77 0.84 0.87 0.93 1.11 1.14 0.98 0.88 0.91 0.93 0.89 0.96 0.99 1.06 1.37 1.59 1.62 1.53 1.36
3.79 3.96 3.47 3.21 3.04 2.58 2.29 2.11 1.94 1.83 1.65 1.44 1.31 1.18 0.93 0.86 0.83 0.74 0.79 0.74 0.68 0.69 0.65 0.66 0.72 0.77 0.78 0.81 0.94 1.01 0.93 0.94 0.90 0.70 0.79 0.84 0.89 1.09 1.24 1.24 1.32 1.48 1.27
2.61 2.55 2.25 2.10 2.26 2.14 2.08 1.98 1.85 1.87 1.81 1.56 1.26 1.13 0.91 0.78 0.75 0.75 0.75 0.77 0.75 0.62 0.61 0.66 0.64 0.66 0.67 0.67 0.73 0.84 0.84 0.85 0.79 0.69 0.68 0.72 0.83 1.00 1.03 1.11 1.02 1.06 1.15
1.72 1.77 1.94 1.94 1.96 1.86 1.82 1.59 1.39 1.26 1.16 1.05 1.03 0.99 0.97 0.84 0.76 0.70 0.68 0.77 0.74 0.62 0.68 0.54 0.52 0.60 0.64 0.56 0.54 0.58 0.57 0.66 0.75 0.80 0.72 0.68 0.74 0.76 0.80 0.86 0.88 0.94 0.96
1.28 1.51 1.86 1.90 1.79 1.68 1.61 1.55 1.52 1.38 1.31 1.19 1.16 1.18 1.13 1.08 0.95 0.76 0.64 0.71 0.73 0.71 0.76 0.66 0.65 0.57 0.54 0.50 0.48 0.53 0.53 0.49 0.52 0.68 0.76 0.73 0.71 0.57 0.58 0.63 0.67 0.74 0.79
1.17 1.28 1.47 1.60 1.72 1.75 1.76 1.74 1.63 1.50 1.43 1.31 1.18 1.08 1.05 1.01 0.95 0.85 0.77 0.82 0.81 0.74 0.75 0.70 0.71 0.66 0.62 0.58 0.47 0.46 0.62 0.58 0.46 0.53 0.56 0.62 0.63 0.46 0.45 0.52 0.56 0.63 0.72